Location: Unspecified
(0.0000°N, 0.0000°E)
Time: 14:02:31
(UTC+00:00)

S-56A Canister/Altair - All Passes

Search period start: 01 August 2021 00:00
Search period end: 11 August 2021 00:00
Orbit: 631 x 2501 km, 38.9° (Epoch: 31 July)

Date Brightness Start Highest point End Pass type
(mag) Time Alt. Az. Time Alt. Az. Time Alt. Az.
01 Aug - 00:16:17 10° WNW 00:24:50 42° SW 00:30:39 10° SSE night (unlit)
01 Aug - 08:50:50 10° SSE 08:53:15 12° SE 08:55:55 10° ESE daylight
01 Aug - 10:49:33 10° SW 10:57:11 72° SE 11:08:55 10° NE daylight
01 Aug - 12:54:34 10° W 13:03:17 35° NNW 13:15:06 10° NNE daylight
01 Aug - 15:08:31 10° NW 15:12:39 12° NNW 15:17:02 10° N daylight
01 Aug - 19:33:18 10° N 19:38:21 13° NNE 19:42:55 10° NE visible
01 Aug - 21:35:51 10° NNW 21:46:53 38° NE 21:54:34 10° E visible
01 Aug - 23:42:26 10° WNW 23:52:07 54° SW 23:58:32 10° SSE visible
02 Aug - 10:17:15 10° SW 10:24:17 60° SE 10:35:03 10° ENE daylight
02 Aug - 12:21:34 10° W 12:29:54 38° NW 12:41:37 10° NNE daylight
02 Aug - 14:33:44 10° NW 14:38:46 13° NNW 14:44:16 10° N daylight
02 Aug - 19:00:26 10° N 19:04:32 12° NNE 19:08:22 10° NE visible
02 Aug - 21:02:23 10° NNW 21:13:35 35° NNE 21:21:40 10° E visible
02 Aug - 23:08:36 10° NW 23:19:20 66° SW 23:26:18 10° SE visible
03 Aug - 09:45:04 10° SSW 09:51:30 48° SE 10:01:09 10° ENE daylight
03 Aug - 11:48:42 10° WSW 11:56:37 43° NW 12:08:06 10° NNE daylight
03 Aug - 13:59:26 10° NW 14:04:59 14° NNW 14:11:14 10° N daylight
03 Aug - 18:28:05 10° N 18:30:37 11° NNE 18:33:05 10° NNE visible
03 Aug - 20:28:55 10° NNW 20:40:12 31° NNE 20:48:38 10° E visible
03 Aug - 22:34:48 10° NW 22:46:27 79° SW 22:53:58 10° SE visible
04 Aug - 00:46:44 10° WSW 00:50:20 13° SW 00:53:27 10° SSW night (unlit)
04 Aug - 09:12:58 10° SSW 09:18:48 38° SE 09:27:13 10° ENE daylight
04 Aug - 11:15:58 10° WSW 11:23:27 48° NW 11:34:35 10° NE daylight
04 Aug - 13:25:27 10° NW 13:31:18 15° NNW 13:38:05 10° N daylight
04 Aug - 19:55:30 10° NNW 20:06:43 29° NNE 20:15:26 10° E visible
04 Aug - 22:01:01 10° NW 22:13:27 89° NE 22:21:33 10° SE visible
05 Aug - 00:11:38 10° W 00:17:35 18° SW 00:22:18 10° S night (unlit)
05 Aug - 08:41:00 10° SSW 08:46:09 29° SE 08:53:13 10° ENE daylight
05 Aug - 10:43:20 10° WSW 10:50:22 54° NW 11:01:05 10° NE daylight
05 Aug - 12:51:45 10° WNW 12:57:43 17° NNW 13:04:51 10° N daylight
05 Aug - 19:22:07 10° NNW 19:33:09 26° NNE 19:42:04 10° E visible
05 Aug - 21:27:16 10° NW 21:40:21 78° NE 21:49:01 10° SE visible
05 Aug - 23:37:00 10° W 23:44:49 24° SW 23:50:39 10° S visible
06 Aug - 08:09:11 10° S 08:13:33 22° SE 08:19:09 10° E daylight
06 Aug - 10:10:48 10° WSW 10:17:24 63° NW 10:27:34 10° NE daylight
06 Aug - 12:18:17 10° WNW 12:24:14 18° NNW 12:31:36 10° NNE daylight
06 Aug - 18:48:49 10° NNW 18:59:29 24° NNE 19:08:29 10° ENE visible
06 Aug - 20:53:34 10° NW 21:07:08 69° NE 21:16:23 10° ESE visible
06 Aug - 23:02:33 10° WNW 23:12:00 31° SW 23:18:46 10° SSE visible
07 Aug - 07:37:41 10° S 07:40:57 16° SE 07:44:51 10° E daylight
07 Aug - 09:38:21 10° SW 09:44:32 74° NW 09:54:04 10° NE daylight
07 Aug - 11:45:00 10° WNW 11:50:52 19° NNW 11:58:19 10° NNE daylight
07 Aug - 18:15:36 10° NNW 18:25:45 21° NNE 18:34:40 10° ENE visible
07 Aug - 20:19:54 10° NW 20:33:49 61° NE 20:43:38 10° ESE visible
07 Aug - 22:28:15 10° WNW 22:39:07 39° SW 22:46:42 10° SSE visible
08 Aug - 07:07:04 10° SSE 07:08:21 11° SE 07:09:42 10° ESE daylight
08 Aug - 09:05:58 10° SW 09:11:46 88° NW 09:20:36 10° NE daylight
08 Aug - 11:11:51 10° WNW 11:17:35 21° NNW 11:25:05 10° NNE daylight
08 Aug - 17:42:31 10° N 17:51:57 19° NNE 18:00:34 10° ENE daylight
08 Aug - 19:46:19 10° NW 20:00:24 55° NE 20:10:46 10° ESE visible
08 Aug - 21:54:03 10° WNW 22:06:08 47° SW 22:14:30 10° SSE visible
09 Aug - 08:33:40 10° SW 08:39:05 76° SE 08:47:09 10° NE daylight
09 Aug - 10:38:51 10° W 10:44:25 23° NNW 10:51:52 10° NNE daylight
09 Aug - 17:09:35 10° N 17:18:05 17° NNE 17:26:08 10° ENE daylight
09 Aug - 19:12:49 10° NNW 19:26:54 49° NE 19:37:45 10° ESE visible
09 Aug - 21:19:55 10° WNW 21:33:04 57° SW 21:42:10 10° SSE visible
09 Aug - 23:36:18 10° SW 23:37:52 10° SW 23:39:20 10° SW visible
10 Aug - 08:01:26 10° SW 08:06:29 59° SE 08:13:44 10° ENE daylight
10 Aug - 10:05:58 10° W 10:11:21 25° NNW 10:18:40 10° NNE daylight
10 Aug - 16:36:54 10° N 16:44:10 15° NNE 16:51:17 10° ENE daylight
10 Aug - 18:39:23 10° NNW 18:53:18 44° NE 19:04:34 10° ESE visible
10 Aug - 20:45:55 10° WNW 20:59:54 66° SW 21:09:44 10° SE visible
10 Aug - 22:59:24 10° WSW 23:04:51 15° SW 23:09:29 10° SSW visible
